SCP
1 1 2 3 3 2 1 0 0 0 0 0 0 0 0 0 0 0 1 1 2 2 2 2 2 2 2 2 2 1 1 1 1 1 1 1 1 1 1 1 1 1 1 1 1 1 1 0 0
1 2 2 3 2 1 1 0 0 0 0 0 0 0 0 0 0 0 1 2 2 2 2 2 2 2 2 2 2 1 1 1 1 1 1 1 1 1 1 1 1 1 1 1 1 1 1 1 0
3 3 3 3 2 1 0 0 0 0 0 0 0 1 1 0 0 0 1 2 2 1 2 2 2 2 2 2 2 2 1 1 1 1 1 1 1 1 1 1 1 1 1 1 1 1 1 1 1
4 4 4 3 1 0 0 0 0 0 0 0 0 1 1 0 0 0 1 2 2 1 2 2 2 2 2 2 2 2 2 2 2 1 1 1 1 1 1 1 1 1 1 1 1 1 1 1 1
5 4 3 2 1 0 0 0 0 0 0 0 0 1 1 1 1 0 1 1 1 1 2 2 2 2 2 2 2 2 3 2 2 2 1 1 1 1 1 1 1 1 1 1 1 1 1 1 1
5 4 2 1 0 0 0 0 0 0 0 0 1 1 1 1 1 1 1 1 1 1 1 2 2 2 3 3 2 3 3 2 2 2 1 1 1 1 1 1 1 1 1 1 1 1 1 1 1
5 3 2 1 0 0 0 0 0 0 0 0 1 1 1 1 1 1 1 1 1 1 1 2 2 3 3 3 2 2 2 2 2 2 1 1 1 1 1 1 1 1 1 1 1 1 1 1 1
3 3 2 1 0 0 0 0 0 0 0 1 1 1 1 1 1 1 1 1 1 1 1 2 2 3 3 2 2 2 2 2 2 2 1 1 1 1 1 1 1 1 1 1 1 1 1 1 1
2 2 1 0 0 0 0 0 0 0 1 1 1 1 1 1 1 1 1 1 1 1 1 1 2 3 3 2 2 1 2 2 2 2 1 1 1 1 1 1 1 1 1 1 1 1 1 1 1
2 2 1 0 0 0 0 0 0 0 1 1 1 1 1 2 1 1 1 1 1 1 1 2 2 3 2 2 1 1 1 1 1 2 2 1 1 1 1 1 1 1 1 1 1 1 1 1 1
2 1 1 0 0 0 0 0 0 0 0 1 1 2 2 2 1 1 1 2 2 2 2 2 3 3 3 2 2 1 2 2 2 2 2 2 1 1 1 1 1 1 1 1 1 1 1 1 2
1 1 0 0 0 0 0 0 0 0 1 1 2 2 2 2 2 2 1 2 2 2 2 3 3 4 4 4 3 2 2 2 2 2 2 2 2 2 1 1 1 1 1 1 1 1 1 2 2
0 0 0 0 0 0 0 0 0 1 2 2 2 2 2 2 3 2 2 2 2 2 3 3 4 5 6 6 5 4 3 2 2 2 2 2 3 3 2 2 1 1 1 1 2 2 1 1 1
0 0 0 0 1 0 0 0 0 1 2 2 2 2 2 2 3 3 2 2 3 3 3 3 4 6 8 8 6 5 4 2 2 2 2 3 3 4 3 2 2 1 1 1 2 1 1 1 1
0 0 1 1 0 0 0 0 0 1 2 1 1 2 2 2 3 3 3 3 3 3 3 3 4 6 8 8 7 5 4 2 2 2 2 3 4 4 3 2 2 1 1 2 2 1 1 1 1
0 1 1 1 0 0 0 0 0 1 1 1 1 1 2 2 3 3 3 3 3 3 3 4 4 6 7 8 7 5 3 2 2 2 2 3 3 3 3 2 2 2 2 2 2 1 1 1 1
0 1 1 0 0 0 0 0 0 0 1 1 1 1 2 3 4 4 4 4 3 4 5 5 6 7 7 7 7 5 3 3 2 2 2 2 2 2 2 1 1 2 2 2 2 1 1 1 1
0 0 0 0 0 0 0 0 0 0 1 1 1 2 2 3 4 5 5 5 4 5 7 8 9 8 8 8 7 6 5 4 4 4 3 2 1 1 1 1 1 1 1 1 1 1 1 1 1
0 0 0 0 0 0 0 0 1 1 1 1 1 2 2 3 4 6 7 6 5 6 9 12 12 10 9 9 8 7 6 6 6 6 4 2 1 1 1 1 1 1 1 1 1 1 1 1 1
0 0 0 0 0 0 0 1 1 1 1 1 1 2 2 3 5 7 8 8 6 7 10 13 14 12 10 10 9 8 6 6 6 5 4 3 2 1 1 2 2 2 2 2 2 2 2 2 2
0 0 0 0 0 0 0 1 1 1 1 1 2 2 3 4 5 6 9 9 7 8 10 13 14 13 10 9 9 7 6 5 5 4 4 3 2 2 2 2 2 2 2 2 2 2 2 2 2
0 0 0 0 0 0 0 1 1 1 1 1 2 3 4 4 4 5 7 8 8 8 10 13 14 12 10 8 7 6 5 5 5 4 4 4 4 3 3 3 3 2 2 2 2 2 3 3 3
0 0 0 0 0 0 0 1 2 2 2 2 2 4 5 5 4 4 6 7 8 8 11 13 14 13 11 9 8 7 6 5 5 5 6 6 5 5 4 4 3 3 3 3 3 3 3 3 3
0 0 0 0 0 0 0 1 1 2 2 2 3 5 7 6 4 4 5 7 9 11 13 15 14 13 13 12 10 9 8 6 5 6 7 6 6 5 5 4 4 4 4 4 4 4 4 4 4
0 0 0 0 0 0 0 0 1 2 2 2 4 6 7 6 6 5 6 7 9 12 13 13 12 12 13 12 12 11 10 8 6 6 6 6 5 5 4 4 5 5 5 5 6 6 5 5 5
0 0 0 0 0 1 1 1 1 1 2 3 5 6 7 7 6 6 6 6 6 7 8 8 9 11 11 12 11 11 10 8 7 6 5 5 5 4 4 4 5 6 6 6 6 6 6 5 5
0 0 0 0 0 0 1 1 2 2 2 3 5 6 6 7 7 6 6 5 4 4 5 6 8 9 10 10 10 10 9 8 7 6 5 5 5 4 4 4 4 5 6 6 6 5 5 5 4
0 0 0 0 0 0 1 1 2 3 3 3 4 5 6 7 7 6 6 6 5 6 7 8 8 8 9 9 9 8 7 7 8 6 5 5 5 4 4 3 4 4 5 5 5 4 4 4 4
0 0 0 0 0 0 1 1 2 3 3 3 4 5 5 6 7 6 6 7 9 10 10 9 8 7 7 8 8 7 6 6 7 6 5 4 4 3 3 3 4 4 4 4 4 3 3 4 4
0 0 0 0 0 0 1 1 2 2 3 3 4 5 5 5 6 6 7 10 12 12 11 8 7 5 6 6 7 7 6 6 6 6 4 3 3 2 3 3 3 4 4 4 4 4 4 4 4
Wind_Speed
9 10 8 5 4 2 5 7 9 9 9 9 9 10 12 12 9 8 6 10 14 14 13 12 12 13 12 11 11 11 10 10 10 9 9 9 9 9 9 8 8 9 8 8 7 7 7 7 7
9 10 7 5 3 3 7 8 9 9 8 8 9 12 13 12 11 9 8 10 13 14 12 12 13 13 12 11 11 10 10 10 10 9 9 9 9 9 9 8 8 8 8 7 7 6 6 6 6
11 10 6 4 1 5 8 8 8 8 8 8 10 12 10 9 9 8 9 12 13 14 13 14 14 13 12 11 10 9 10 11 10 10 10 10 9 9 8 8 8 7 7 7 6 6 5 6 5
7 7 6 3 4 7 8 7 7 9 8 8 10 10 10 9 9 10 12 13 14 15 15 15 15 14 12 11 10 10 11 11 11 10 9 9 9 8 8 8 7 7 7 6 6 5 5 5 5
8 5 4 1 5 8 8 8 7 9 9 11 12 12 10 11 12 12 12 13 14 15 15 15 15 14 13 12 11 10 11 12 11 10 9 9 8 8 8 8 7 6 6 6 5 5 4 4 4
4 4 2 4 7 7 8 7 8 10 9 10 12 12 9 10 11 11 11 11 13 15 15 14 15 14 13 12 11 11 11 10 10 10 9 9 8 7 7 7 6 6 6 5 5 4 4 3 4
6 2 1 3 6 7 7 8 8 8 8 9 11 11 9 10 10 10 11 11 12 14 14 13 12 12 13 12 11 11 10 10 9 9 8 8 8 7 7 7 6 6 6 5 4 4 4 3 4
7 3 0 4 6 7 8 8 9 8 8 7 8 9 9 11 11 11 11 10 10 11 12 12 12 11 11 10 11 11 10 9 9 8 8 8 7 7 7 7 6 6 6 5 4 4 4 4 5
7 1 1 5 6 7 7 8 9 8 10 11 12 13 14 14 14 11 10 10 9 8 8 9 10 10 10 10 11 10 10 9 8 7 8 7 4 5 5 6 7 7 6 5 5 5 5 5 5
2 1 2 5 5 6 6 7 7 7 9 11 12 15 15 13 12 11 10 10 10 9 8 6 7 8 8 7 8 6 6 7 5 5 6 4 3 3 4 7 8 7 5 5 5 6 6 5 4
2 2 2 4 5 4 4 6 7 6 8 8 10 14 13 12 10 10 10 9 9 9 8 7 7 6 6 5 5 3 3 4 5 5 4 3 3 2 3 3 4 4 4 3 4 5 4 4 2
2 2 1 3 4 3 4 6 7 7 8 9 11 14 13 11 9 9 9 9 9 9 8 7 7 6 5 5 3 3 2 3 3 4 3 3 2 1 2 1 2 2 2 2 2 2 3 2 1
2 3 1 3 4 3 5 6 7 7 8 9 11 12 11 11 10 9 9 8 9 9 8 8 7 6 4 3 1 3 2 3 4 4 2 3 2 2 2 1 1 0 1 1 0 1 1 1 1
2 1 1 3 4 4 5 6 6 6 8 9 10 10 10 9 9 9 9 9 9 8 8 8 7 7 4 3 1 2 2 2 3 3 4 2 2 2 2 1 1 0 1 1 1 1 1 1 1
2 0 3 4 5 5 5 4 5 6 8 8 9 9 9 9 10 9 9 9 9 8 7 7 7 7 4 3 2 2 2 3 3 3 4 2 2 2 1 1 1 1 1 1 1 1 1 1 2
3 4 5 5 4 6 4 4 5 7 7 8 8 9 9 9 10 10 10 9 9 8 7 5 6 8 5 3 2 2 2 3 2 3 3 3 2 2 1 1 1 1 1 1 1 0 1 1 0
6 7 7 5 5 5 5 5 7 7 8 8 8 9 10 10 9 10 11 10 10 8 7 6 5 6 6 4 2 2 2 2 2 2 3 3 2 1 1 1 1 1 1 1 1 1 0 1 0
7 7 5 5 5 5 5 6 7 8 8 9 9 9 10 10 9 11 11 11 10 9 7 6 6 6 5 4 2 2 2 2 2 2 2 3 2 1 0 1 1 1 0 0 1 1 0 1 1
9 7 4 4 6 5 4 5 7 8 8 8 9 10 10 10 11 11 11 11 11 10 8 7 6 6 4 3 3 3 2 2 2 2 3 3 2 2 1 0 0 0 0 0 0 0 1 1 0
8 7 6 5 4 3 2 4 5 6 8 9 10 10 11 11 12 11 11 10 11 10 9 8 7 6 5 4 3 3 3 2 2 2 3 2 2 2 1 0 0 0 0 1 0 0 1 1 0
9 9 9 6 4 3 3 4 5 8 7 7 9 10 11 13 13 12 11 10 11 11 10 8 7 6 6 6 4 3 2 1 2 2 2 1 1 1 1 1 0 0 0 1 1 1 1 1 1
10 10 9 7 6 5 6 4 6 6 8 8 9 10 11 12 13 13 12 11 11 11 11 9 8 7 6 5 5 5 4 3 3 3 3 3 2 2 1 1 0 0 0 0 1 0 1 1 1
11 8 8 8 6 7 8 5 6 8 8 10 11 12 12 12 13 13 12 11 11 11 12 10 9 7 6 5 5 4 4 3 3 3 3 3 2 2 1 2 1 1 0 0 1 1 1 1 1
9 8 8 7 7 9 9 7 6 7 9 10 11 12 11 11 11 11 11 10 10 11 11 11 10 8 7 7 6 4 4 3 3 3 3 2 2 2 2 2 1 1 0 0 0 0 0 1 2
8 8 6 7 7 8 7 7 3 6 7 7 10 12 12 11 11 11 11 11 9 10 11 11 11 9 8 8 6 6 4 4 4 3 3 3 2 2 2 2 2 1 1 1 1 1 1 1 2
9 9 7 7 6 4 2 5 3 6 7 6 7 10 11 12 10 10 11 11 10 10 10 11 11 9 8 7 5 5 5 4 3 3 3 2 1 2 3 2 2 2 1 1 1 1 1 1 2
10 9 10 10 10 6 4 5 1 5 7 6 7 9 10 10 10 10 10 11 11 11 10 11 11 9 9 8 6 5 4 3 3 3 3 2 2 2 3 3 2 2 1 1 1 1 1 1 1
12 9 6 7 6 7 4 5 4 5 6 6 6 8 10 9 9 9 9 9 10 10 10 10 10 9 8 8 7 6 5 3 3 2 2 1 1 1 2 2 2 2 1 1 1 1 0 0 1
11 12 8 7 8 7 5 2 1 5 6 6 6 7 8 8 8 8 7 8 10 10 10 10 9 8 7 7 6 5 6 5 4 3 2 2 1 2 2 2 2 2 2 2 1 2 1 1 1
11 11 10 8 8 9 6 3 1 2 6 6 6 6 7 7 6 6 7 7 7 9 10 10 9 9 7 6 6 5 5 5 5 4 3 3 2 2 2 2 2 3 2 2 2 2 1 1 1
Wind_Direction
195 209 215 237 245 236 56 57 58 58 57 57 54 61 60 52 60 87 104 108 112 118 121 120 118 119 119 119 118 118 118 118 117 118 121 121 122 123 124 125 124 126 129 130 130 129 127 125 127
217 215 224 241 255 75 66 65 66 59 63 69 64 67 68 64 75 98 110 115 117 118 119 118 119 119 120 119 118 119 121 122 119 117 119 121 122 123 125 126 127 130 132 135 135 133 133 135 138
242 239 248 238 340 65 71 70 75 75 70 76 74 62 62 75 83 103 122 123 116 114 116 118 121 121 121 119 117 119 125 128 124 120 119 122 122 125 125 125 127 129 131 134 135 139 140 144 152
232 232 241 250 53 62 71 76 80 82 75 69 79 74 70 77 98 117 128 123 114 113 116 121 123 124 123 120 117 112 119 126 124 121 120 122 122 124 127 128 130 132 133 134 136 141 146 156 167
237 265 252 63 65 70 72 70 70 77 74 76 79 90 86 90 104 117 122 118 115 116 118 124 126 127 126 123 119 116 113 118 120 119 118 122 123 123 126 129 131 133 133 133 138 143 148 161 180
256 250 297 66 73 70 78 80 76 79 83 89 95 97 97 109 117 122 117 116 116 117 120 125 129 130 130 127 125 122 120 120 121 120 121 124 127 128 132 136 138 136 135 134 139 145 152 176 196
256 259 121 87 85 72 70 74 76 78 78 84 100 106 117 123 126 125 117 116 119 121 125 133 139 138 136 133 131 129 125 124 125 126 127 126 129 135 141 145 145 142 141 141 144 156 170 189 214
256 283 356 104 85 77 77 73 71 74 74 78 95 107 124 131 132 127 122 120 118 121 129 138 143 144 147 142 142 139 136 136 138 138 139 138 143 149 150 151 151 150 150 154 161 179 188 200 219
265 274 1 85 89 91 88 85 83 81 84 74 72 96 119 130 132 130 124 121 121 121 128 134 137 141 143 142 144 150 147 148 149 151 154 159 165 159 158 142 147 158 161 166 178 195 202 210 219
253 284 69 78 90 91 89 94 99 99 97 91 92 105 122 132 139 139 135 136 137 135 127 123 127 130 133 128 136 152 154 154 164 154 161 178 161 139 128 133 151 160 165 176 190 203 210 220 217
216 238 92 92 90 84 92 94 90 98 99 113 123 126 132 137 143 140 139 140 136 133 124 124 119 118 116 114 131 140 132 142 158 149 158 135 115 123 122 142 150 165 175 193 189 205 216 218 208
181 252 163 108 107 118 94 86 84 79 97 119 126 134 140 144 145 141 135 133 131 128 126 118 111 104 100 115 127 130 132 146 135 132 136 117 117 109 110 112 128 157 169 179 182 199 197 214 208
191 221 184 151 144 129 103 97 95 97 105 121 126 135 140 143 144 140 137 132 127 128 127 116 112 102 92 91 122 127 119 123 122 123 119 115 120 109 98 85 91 120 136 138 165 213 184 191 215
232 193 245 177 157 158 132 128 122 120 133 129 131 136 142 143 145 142 142 136 130 126 125 118 118 112 116 122 120 110 117 107 114 119 114 112 108 104 104 101 112 203 161 161 209 227 205 193 199
323 39 262 217 186 150 135 133 126 138 145 142 138 137 142 148 148 145 141 137 132 127 125 126 130 127 132 135 147 123 118 113 109 111 114 112 106 109 120 148 179 188 199 196 208 255 251 215 211
271 262 245 235 199 166 182 150 146 156 159 149 149 150 150 152 148 144 140 137 132 131 131 133 135 134 136 131 132 113 104 110 108 114 119 115 103 121 141 163 169 186 201 215 184 201 272 271 237
225 232 228 225 225 199 192 159 162 173 165 155 159 155 153 153 152 146 146 143 138 135 134 136 132 135 140 141 138 114 98 93 107 112 120 124 121 140 156 145 183 184 198 211 200 144 212 275 253
243 223 218 220 214 217 187 160 173 172 172 161 160 156 157 154 157 148 147 146 142 140 140 145 143 142 146 144 134 127 122 133 130 118 121 118 128 128 167 169 217 195 163 89 41 39 337 320 305
248 258 239 236 224 220 191 174 184 176 176 162 164 163 160 160 157 148 151 148 146 145 148 153 154 153 151 151 161 154 150 153 149 151 133 133 140 141 160 338 77 254 128 171 192 73 318 284 225
259 273 258 239 235 241 210 197 192 191 186 170 171 170 168 164 156 152 156 156 154 154 154 160 163 161 158 157 160 157 155 160 161 139 126 145 157 165 171 185 228 286 106 72 18 354 296 278 183
267 262 262 263 265 258 235 224 202 196 191 177 172 172 167 165 160 160 165 162 160 160 162 162 160 165 167 164 165 156 148 156 144 141 138 160 161 160 255 147 204 284 167 128 187 230 256 288 298
254 258 268 274 267 256 240 240 216 211 190 189 185 170 166 167 163 164 167 167 167 164 161 156 159 164 166 169 172 173 165 164 167 158 155 173 172 179 195 147 163 288 34 73 269 105 274 283 299
261 274 278 280 276 273 267 255 220 203 204 194 189 173 168 168 163 165 168 167 166 164 160 156 157 161 165 171 175 181 168 169 152 151 160 176 173 174 174 156 176 188 155 71 356 20 353 336 314
265 274 276 271 265 257 256 256 216 197 197 198 182 165 163 161 158 161 160 158 165 163 159 157 157 162 167 175 179 176 177 175 156 168 172 190 183 167 177 163 167 175 201 137 253 310 306 317 312
248 253 253 249 236 237 250 248 207 184 178 186 162 158 156 156 157 160 158 162 169 166 161 157 157 163 171 175 178 172 182 183 174 179 188 203 189 173 173 172 163 179 204 207 195 236 296 284 292
238 242 250 267 272 277 288 260 220 163 155 152 150 153 151 154 157 160 160 161 165 166 159 156 156 160 167 169 173 175 187 190 186 200 204 197 196 166 161 169 165 182 210 222 224 235 243 282 282
236 239 252 265 275 278 242 255 234 145 139 143 149 147 145 149 151 159 162 163 164 163 161 159 154 160 166 168 168 174 180 183 189 192 201 192 192 184 159 171 170 179 189 225 234 247 273 310 284
249 252 259 272 280 276 260 247 225 176 149 141 153 149 142 144 150 156 159 157 158 159 158 152 153 161 167 168 176 174 171 179 191 201 179 194 172 177 169 178 177 175 179 209 211 254 265 326 302
229 245 252 266 274 280 274 265 234 160 157 149 149 137 139 151 151 151 150 151 154 155 156 156 157 161 169 171 169 164 172 179 178 180 177 174 185 178 175 177 180 175 181 196 198 237 221 237 278
238 241 241 244 260 271 278 287 313 122 114 113 112 114 128 124 124 131 137 139 146 154 156 156 160 164 171 168 164 169 171 174 179 176 173 178 184 191 173 176 190 201 197 191 212 242 231 232 260